This is the latest recevied weather packets stored in our database for station/object VE3EP-1. If no packets are shown the sender has not sent any weather packets the latest 10 day(s).
| Time | Temp. | Humidity | Pressure | Rain* | Wind** | Luminosity | Snow |
|---|---|---|---|---|---|---|---|
| 1787959447 | 19.44° C | 68% | 1023.1 hPa | 0 mm | - | - | - |
| 1787958851 | 19.44° C | 65% | 1023.2 hPa | 0 mm | - | - | - |
| 1787958248 | 19.44° C | 67% | 1023 hPa | 0 mm | - | - | - |
| 1787957647 | 19.44° C | 66% | 1023 hPa | 0 mm | - | - | - |
| 1787957047 | 20° C | 66% | 1023.3 hPa | 0 mm | - | - | - |
| 1787956447 | 20° C | 67% | 1023.1 hPa | 0 mm | - | - | - |
| 1787955847 | 20° C | 63% | 1022.9 hPa | 0 mm | - | - | - |
| 1787952847 | 20.56° C | 65% | 1022.8 hPa | 0 mm | - | - | - |
| 1787952247 | 21.11° C | 64% | 1023 hPa | 0 mm | - | - | - |
| 1787951648 | 20° C | 64% | 1022.9 hPa | 0 mm | - | - | - |
| 1787951047 | 20.56° C | 65% | 1022.9 hPa | 0 mm | - | - | - |
| 1787950447 | 21.11° C | 63% | 1022.6 hPa | 0 mm | - | - | - |
| 1787949847 | 21.11° C | 64% | 1022.8 hPa | 0 mm | - | - | - |
| 1787949247 | 21.11° C | 62% | 1022.8 hPa | 0 mm | - | - | - |
| 1787948647 | 20° C | 64% | 1022.7 hPa | 0 mm | - | - | - |
| 1787948047 | 20° C | 65% | 1022.9 hPa | 0 mm | - | - | - |
| 1787947447 | 20° C | 66% | 1022.9 hPa | 0 mm | - | - | - |
| 1787946847 | 20° C | 66% | 1023 hPa | 0 mm | - | - | - |
| 1787946247 | 21.11° C | 63% | 1022.9 hPa | 0 mm | - | - | - |
| 1787945648 | 21.11° C | 63% | 1023 hPa | 0 mm | - | - | - |
| 1787945047 | 20° C | 63% | 1022.9 hPa | 0 mm | - | - | - |
| 1787944447 | 21.67° C | 58% | 1022.9 hPa | 0 mm | - | - | - |
| 1787943247 | 20.56° C | 59% | 1023.1 hPa | 0 mm | - | - | - |
| 1787942647 | 20.56° C | 51% | 1023.1 hPa | 0 mm | - | - | - |
| 1787942047 | 21.11° C | 53% | 1023.1 hPa | 0 mm | - | - | - |
* Rain latest hour (hover to see other rain measurements)
** Current wind speed in m/s (hover to see current wind gust speed)